Weather reports worldwide

Advertisment
Brno/Turany, Czech Republic (11723): temperature & dewpoint: 06.11.2019 06:00:00 - 12.11.2019 06:00:00 (CET)Brno/Turany, Czech Republic (11723): wind speed & gusts: 06.11.2019 06:00:00 - 12.11.2019 06:00:00 (CET)Brno/Turany, Czech Republic (11723): wind direction: 06.11.2019 06:00:00 - 12.11.2019 06:00:00 (CET)Brno/Turany, Czech Republic (11723): reduced air pressure: 06.11.2019 06:00:00 - 12.11.2019 06:00:00 (CET)Brno/Turany, Czech Republic (11723): visibility: 06.11.2019 06:00:00 - 12.11.2019 06:00:00 (CET)Brno/Turany, Czech Republic (11723): precipitation: 06.11.2019 06:00:00 - 12.11.2019 06:00:00 (CET)
Date & Time tt [°C] td [°C] ff [km/h] ff [kn] fx [km/h] fx [kn] dd ppp [hPa] vv [km] rr [mm]
12.11.2019 06:00:00 6,9 6,3 16 9 - - SSE 1011,1 5 0,0
12.11.2019 05:00:00 7,0 6,3 22 12 40 21 S 1010,8 6 0,0
12.11.2019 04:00:00 7,3 6,1 25 14 - - SSE 1010,6 7 0,0
12.11.2019 03:00:00 7,4 6,0 24 13 - - SE 1010,4 10 0,0
12.11.2019 02:00:00 7,4 5,7 22 12 - - SSE 1010,7 11 0,0
12.11.2019 01:00:00 7,2 5,3 25 14 - - SSE 1011,0 12 0,0
12.11.2019 00:00:00 7,2 4,9 26 14 - - ESE 1011,1 10 0,0
11.11.2019 23:00:00 7,2 4,9 26 14 - - SE 1011,3 10 0,0
11.11.2019 22:00:00 7,0 4,8 22 12 - - SE 1011,4 15 0,0
11.11.2019 21:00:00 7,1 4,6 21 11 - - SE 1011,5 10 0,0
11.11.2019 20:00:00 6,6 4,4 18 10 - - ESE 1011,9 9 0,0
11.11.2019 19:00:00 6,5 4,5 14 8 - - ESE 1012,0 9 0,0
11.11.2019 18:00:00 6,4 4,4 21 11 - - ESE 1012,3 9 0,0
11.11.2019 17:00:00 6,5 4,0 21 11 - - ESE 1012,7 10 0,0
11.11.2019 16:00:00 6,1 3,6 18 10 - - ESE 1013,0 14 0,0
11.11.2019 15:00:00 6,3 3,3 22 12 - - ESE 1013,6 10 0,0
11.11.2019 14:00:00 6,5 3,3 22 12 - - ESE 1014,3 10 0,0
11.11.2019 13:00:00 6,0 3,7 14 8 - - ESE 1015,1 11 0,0
11.11.2019 12:00:00 4,5 4,4 13 7 - - E 1016,3 6 0,0
11.11.2019 11:00:00 3,1 3,0 11 6 - - E 1017,5 0,4 0,0
11.11.2019 10:00:00 1,6 1,5 4 2 - - E 1018,4 0,2 0,0
11.11.2019 09:00:00 1,3 1,0 5 3 - - ENE 1018,5 0,3 0,0
11.11.2019 08:00:00 0,7 0,4 8 4 - - NE 1018,8 0,1 0,0
11.11.2019 07:00:00 1,0 0,7 5 3 - - NNE 1018,6 0,4 0,0
11.11.2019 06:00:00 1,8 1,4 9 5 - - N 1018,2 1,4 0,0
11.11.2019 05:00:00 1,7 1,1 2 1 - - NW 1018,1 5 0,0
11.11.2019 04:00:00 1,2 0,5 7 4 - - WNW 1017,7 8 0,0
11.11.2019 03:00:00 2,0 1,0 8 4 - - W 1017,7 9 0,0
11.11.2019 02:00:00 3,2 2,0 9 5 - - W 1017,6 10 0,0
11.11.2019 01:00:00 4,5 2,4 4 2 - - NNW 1017,2 15 0,0
11.11.2019 00:00:00 4,8 2,7 5 3 - - NNW 1017,1 10 0,0
10.11.2019 23:00:00 5,4 2,7 9 5 - - NNW 1016,6 10 0,0
10.11.2019 22:00:00 5,8 2,8 14 8 - - NW 1016,3 20 0,0
10.11.2019 21:00:00 6,1 3,1 13 7 - - NW 1015,7 10 0,0
10.11.2019 20:00:00 6,6 3,0 16 9 - - NW 1015,3 10 0,0
10.11.2019 19:00:00 6,9 2,8 14 8 - - NNW 1014,6 30 0,0
10.11.2019 18:00:00 7,3 2,8 18 10 - - NNW 1014,1 35 0,0
10.11.2019 17:00:00 7,5 3,2 13 7 - - NNW 1013,4 10 0,0
10.11.2019 16:00:00 7,8 3,3 14 8 - - NNW 1012,7 30 0,0
10.11.2019 15:00:00 8,0 3,3 16 9 - - N 1012,1 10 0,0
10.11.2019 14:00:00 7,5 3,4 13 7 - - NNW 1011,7 10 0,0
10.11.2019 13:00:00 7,1 3,3 18 10 - - NW 1011,6 20 0,0
10.11.2019 12:00:00 6,0 3,3 18 10 - - NW 1011,8 10 0,0
10.11.2019 11:00:00 4,9 2,6 16 9 - - NW 1012,2 10 0,0
10.11.2019 10:00:00 3,8 2,2 13 7 - - NW 1012,4 10 0,0
10.11.2019 09:00:00 2,6 1,7 4 2 - - - 1012,3 10 0,0
10.11.2019 08:00:00 0,9 0,2 11 6 - - WNW 1012,3 15 0,0
10.11.2019 07:00:00 0,7 0,0 4 2 - - NW 1012,3 15 0,0
10.11.2019 06:00:00 1,0 0,3 7 4 - - NNE 1012,3 25 0,0
10.11.2019 05:00:00 1,3 0,6 5 3 - - NW 1012,3 10 0,0
10.11.2019 04:00:00 1,3 0,6 7 4 - - WNW 1012,6 25 0,0
10.11.2019 03:00:00 1,0 0,4 4 2 - - - 1012,9 10 0,0
10.11.2019 02:00:00 2,6 1,7 5 3 - - NNW 1012,2 10 0,0
10.11.2019 01:00:00 3,1 1,9 7 4 - - N 1012,7 30 0,0
10.11.2019 00:00:00 3,2 2,0 5 3 - - E 1012,8 10 0,0
09.11.2019 23:00:00 4,1 2,9 5 3 - - E 1012,7 10 0,0
09.11.2019 22:00:00 3,6 2,4 4 2 - - SSW 1012,9 35 0,0
09.11.2019 21:00:00 5,9 3,1 4 2 - - W 1012,9 10 0,0
09.11.2019 20:00:00 6,1 3,6 9 5 - - SW 1012,8 10 0,0
09.11.2019 19:00:00 6,9 4,6 7 4 - - SW 1012,3 35 0,0
09.11.2019 18:00:00 6,9 4,4 4 2 - - SSW 1012,3 10 0,0
09.11.2019 17:00:00 7,3 4,1 11 6 - - WSW 1011,8 10 0,0
09.11.2019 16:00:00 7,5 4,6 14 8 - - WSW 1011,0 40 0,0
09.11.2019 15:00:00 8,2 5,1 16 9 - - SW 1010,4 10 0,0
09.11.2019 14:00:00 8,1 5,7 18 10 - - SW 1009,9 30 0,0
09.11.2019 13:00:00 7,6 6,5 15 8 - - SSW 1009,3 10 0,1
09.11.2019 12:00:00 7,5 6,9 16 9 - - SSW 1009,3 2,5 0,0
09.11.2019 11:00:00 7,6 7,0 16 9 - - SW 1009,3 5 0,1
09.11.2019 10:00:00 7,6 7,2 14 8 - - SSW 1008,5 2,3 0,2
09.11.2019 09:00:00 7,5 6,9 9 5 - - S 1008,3 2,5 0,0
09.11.2019 08:00:00 7,5 6,9 11 6 - - SSW 1007,7 3,8 0,0
09.11.2019 07:00:00 7,6 7,0 11 6 - - S 1007,2 3,5 0,7
09.11.2019 06:00:00 7,7 7,3 11 6 - - SSW 1007,2 3,5 0,8
09.11.2019 05:00:00 9,4 9,1 11 6 - - SSE 1006,6 3,4 0,7
09.11.2019 04:00:00 9,5 9,0 14 8 - - SSE 1006,3 6 0,2
09.11.2019 03:00:00 9,9 8,8 15 8 - - SSE 1006,4 10 0,0
09.11.2019 02:00:00 9,9 8,8 13 7 - - SSE 1006,3 10 0,1
09.11.2019 01:00:00 10,0 8,9 14 8 - - SSE 1006,5 18 0,1
09.11.2019 00:00:00 10,2 8,5 11 6 - - SSE 1006,6 10 0,0
08.11.2019 23:00:00 10,3 8,2 15 8 - - SE 1006,6 10 0,0
08.11.2019 22:00:00 10,4 8,2 22 12 - - SE 1006,1 20 0,0
08.11.2019 21:00:00 10,3 8,1 18 10 - - ESE 1006,1 10 0,0
08.11.2019 20:00:00 10,2 8,1 16 9 - - ESE 1005,9 10 0,0
08.11.2019 19:00:00 9,9 7,8 22 12 - - SE 1005,8 20 0,0
08.11.2019 18:00:00 9,6 7,7 22 12 - - E 1005,8 10 0,0
08.11.2019 17:00:00 9,0 7,4 13 7 - - ENE 1006,2 10 0,0
08.11.2019 16:00:00 10,2 7,6 18 10 - - ESE 1006,0 25 0,0
08.11.2019 15:00:00 11,4 7,9 25 14 - - ESE 1005,4 25 0,0
08.11.2019 14:00:00 11,5 8,7 22 12 - - SE 1006,2 10 0,0
08.11.2019 13:00:00 10,9 8,5 29 16 - - SE 1006,7 15 0,0
08.11.2019 12:00:00 10,4 8,3 22 12 40 21 SE 1007,3 10 0,0
08.11.2019 11:00:00 10,1 8,5 29 16 43 23 ESE 1007,7 10 0,0
08.11.2019 10:00:00 9,8 8,4 25 14 - - SE 1008,1 10 0,0
08.11.2019 09:00:00 9,6 8,0 16 9 - - SE 1008,4 10 0,0
08.11.2019 08:00:00 8,9 7,5 21 11 - - ESE 1008,4 10 0,0
08.11.2019 07:00:00 8,7 7,2 25 14 - - SE 1008,3 8 0,0
08.11.2019 06:00:00 8,9 7,7 18 10 - - ESE 1008,3 8 0,0
08.11.2019 05:00:00 8,8 7,4 13 7 - - ESE 1008,5 9 0,0
08.11.2019 04:00:00 8,4 7,3 9 5 - - ESE 1008,8 9 0,0
08.11.2019 03:00:00 7,7 7,0 8 4 - - E 1009,0 8 0,0
08.11.2019 02:00:00 7,9 7,0 15 8 - - E 1008,7 8 0,0
08.11.2019 01:00:00 7,9 7,0 11 6 - - E 1009,1 9 0,0
08.11.2019 00:00:00 8,7 7,2 9 5 - - ESE 1009,3 9 0,0
07.11.2019 23:00:00 8,5 7,0 11 6 - - ESE 1009,0 10 0,0
07.11.2019 22:00:00 7,9 6,5 11 6 - - ESE 1009,3 12 0,0
07.11.2019 21:00:00 8,2 6,8 9 5 - - E 1008,8 10 0,0
07.11.2019 20:00:00 8,7 7,0 14 8 - - ESE 1008,5 12 0,0
07.11.2019 19:00:00 8,7 7,3 7 4 - - ESE 1008,5 15 0,0
07.11.2019 18:00:00 8,6 7,5 11 6 - - E 1008,4 10 0,0
07.11.2019 17:00:00 9,1 7,4 7 4 - - ESE 1007,8 35 0,0
07.11.2019 16:00:00 9,1 7,1 7 4 - - ESE 1006,9 40 0,0
07.11.2019 15:00:00 10,0 7,1 11 6 - - E 1006,5 10 0,0
07.11.2019 14:00:00 10,1 7,2 11 6 - - ENE 1006,2 10 0,0
07.11.2019 13:00:00 9,9 7,3 4 2 - - E 1006,9 30 0,0
07.11.2019 12:00:00 9,2 6,6 8 4 - - E 1007,2 10 0,0
07.11.2019 11:00:00 8,2 6,3 2 1 - - - 1007,5 10 0,0
07.11.2019 10:00:00 7,5 7,1 4 2 - - - 1007,5 4,0 0,0
07.11.2019 09:00:00 6,7 6,6 8 4 - - SSE 1007,5 0,4 0,0
07.11.2019 08:00:00 6,6 6,5 5 3 - - S 1007,5 0,8 0,0
07.11.2019 07:00:00 6,7 6,6 4 2 - - - 1007,1 0,8 0,0
07.11.2019 06:00:00 6,4 6,3 5 3 - - ENE 1006,9 0,5 0,0
07.11.2019 05:00:00 6,7 6,6 4 2 - - S 1007,1 3,5 0,0
07.11.2019 04:00:00 6,3 6,0 8 4 - - ESE 1007,0 1,8 0,0
07.11.2019 03:00:00 7,3 6,7 4 2 - - NW 1006,9 8 0,2
07.11.2019 02:00:00 7,4 6,7 5 3 - - SW 1007,2 10 0,2
07.11.2019 01:00:00 7,3 6,2 4 2 - - S 1007,1 25 0,1
07.11.2019 00:00:00 7,5 6,3 7 4 - - SSE 1007,1 30 0,1
06.11.2019 23:00:00 7,6 5,9 5 3 - - E 1007,0 10 0,0
06.11.2019 22:00:00 8,3 5,6 4 2 - - N 1007,0 40 0,0
06.11.2019 21:00:00 7,5 5,5 8 4 - - ESE 1006,8 10 0,0
06.11.2019 20:00:00 8,9 5,6 4 2 - - - 1006,3 10 0,0
06.11.2019 19:00:00 8,6 5,7 7 4 - - SE 1006,4 40 0,0
06.11.2019 18:00:00 8,8 5,5 8 4 - - ESE 1005,8 10 0,0
06.11.2019 17:00:00 8,2 5,1 9 5 - - SSE 1005,6 10 0,0
06.11.2019 16:00:00 10,7 5,0 7 4 - - S 1004,8 45 0,0
06.11.2019 15:00:00 12,3 5,0 13 7 - - SSW 1004,7 10 0,0
06.11.2019 14:00:00 12,5 5,7 18 10 - - SSW 1004,4 45 0,0
06.11.2019 13:00:00 12,0 6,9 14 8 - - S 1004,5 40 0,0
06.11.2019 12:00:00 11,2 6,3 11 6 - - SSW 1004,3 40 0,0
06.11.2019 11:00:00 10,6 7,5 13 7 - - S 1004,4 10 0,0
06.11.2019 10:00:00 9,5 6,2 7 4 - - SSW 1004,4 30 0,0
06.11.2019 09:00:00 8,4 7,0 9 5 - - SSW 1004,2 10 0,0
06.11.2019 08:00:00 6,4 6,1 4 2 - - - 1003,7 10 0,0
06.11.2019 07:00:00 6,3 6,0 4 2 - - - 1003,0 10 0,0
06.11.2019 06:00:00 7,3 7,0 5 3 - - W 1002,0 10 0,0

tt = temperature
td = dewpoint
ff = wind speed
fx = gusts
dd = wind direction
ppp = reduced air pressure
vv = visibility
rr = precipitation

Next stations